owner,sensor,date,latitude,longitude,vertical_datum,sea_water_temperature,qcFlag 
NDBC,ioos:station:NOAA.NDBC:PTAT2:1,2017-03-01T00:00:00Z,27.8260,-97.0510,0.0,21.0,2 
NDBC,ioos:station:NOAA.NDBC:PTAT2:1,2017-03-01T01:00:00Z,27.8260,-97.0510,0.0,20.9,2 
NDBC,ioos:station:NOAA.NDBC:PTAT2:1,2017-03-01T02:00:00Z,27.8260,-97.0510,0.0,21.1,2 
NDBC,ioos:station:NOAA.NDBC:PTAT2:1,2017-03-01T03:00:00Z,27.8260,-97.0510,0.0,21.0,2 
NDBC,ioos:station:NOAA.NDBC:PTAT2:1,2017-03-01T04:00:00Z,27.8260,-97.0510,0.0,21.0,2 
NDBC,ioos:station:NOAA.NDBC:PTAT2:1,2017-03-01T05:00:00Z,27.8260,-97.0510,0.0,21.1,2 
NDBC,ioos:station:NOAA.NDBC:PTAT2:1,2017-03-01T06:00:00Z,27.8260,-97.0510,0.0,21.1,2 
NDBC,ioos:station:NOAA.NDBC:PTAT2:1,2017-03-01T07:00:00Z,27.8260,-97.0510,0.0,21.2,2 
NDBC,ioos:station:NOAA.NDBC:PTAT2:1,2017-03-01T08:00:00Z,27.8260,-97.0510,0.0,21.2,2 
NDBC,ioos:station:NOAA.NDBC:PTAT2:1,2017-03-01T09:00:00Z,27.8260,-97.0510,0.0,21.2,2 
NDBC,ioos:station:NOAA.NDBC:PTAT2:1,2017-03-01T10:00:00Z,27.8260,-97.0510,0.0,21.2,2 
NDBC,ioos:station:NOAA.NDBC:PTAT2:1,2017-03-01T11:00:00Z,27.8260,-97.0510,0.0,21.2,2 
NDBC,ioos:station:NOAA.NDBC:PTAT2:1,2017-03-01T12:00:00Z,27.8260,-97.0510,0.0,21.2,2 
NDBC,ioos:station:NOAA.NDBC:PTAT2:1,2017-03-01T13:00:00Z,27.8260,-97.0510,0.0,21.2,2 
NDBC,ioos:station:NOAA.NDBC:PTAT2:1,2017-03-01T14:00:00Z,27.8260,-97.0510,0.0,21.3,2 
NDBC,ioos:station:NOAA.NDBC:PTAT2:1,2017-03-01T15:00:00Z,27.8260,-97.0510,0.0,21.5,2 
NDBC,ioos:station:NOAA.NDBC:PTAT2:1,2017-03-01T16:00:00Z,27.8260,-97.0510,0.0,21.6,2 
NDBC,ioos:station:NOAA.NDBC:PTAT2:1,2017-03-01T17:00:00Z,27.8260,-97.0510,0.0,21.6,2 
NDBC,ioos:station:NOAA.NDBC:PTAT2:1,2017-03-01T18:00:00Z,27.8260,-97.0510,0.0,21.7,2 
NDBC,ioos:station:NOAA.NDBC:PTAT2:1,2017-03-01T19:00:00Z,27.8260,-97.0510,0.0,21.9,2 
NDBC,ioos:station:NOAA.NDBC:PTAT2:1,2017-03-01T20:00:00Z,27.8260,-97.0510,0.0,21.9,2 
NDBC,ioos:station:NOAA.NDBC:PTAT2:1,2017-03-01T21:00:00Z,27.8260,-97.0510,0.0,22.0,2 
NDBC,ioos:station:NOAA.NDBC:PTAT2:1,2017-03-01T22:00:00Z,27.8260,-97.0510,0.0,22.1,2 
NDBC,ioos:station:NOAA.NDBC:PTAT2:1,2017-03-02T00:00:00Z,27.8260,-97.0510,0.0,22.0,2 
NDBC,ioos:station:NOAA.NDBC:PTAT2:1,2017-03-02T01:00:00Z,27.8260,-97.0510,0.0,21.6,2 
NDBC,ioos:station:NOAA.NDBC:PTAT2:1,2017-03-02T02:00:00Z,27.8260,-97.0510,0.0,21.3,2 
NDBC,ioos:station:NOAA.NDBC:PTAT2:1,2017-03-02T03:00:00Z,27.8260,-97.0510,0.0,21.0,2 
NDBC,ioos:station:NOAA.NDBC:PTAT2:1,2017-03-02T04:00:00Z,27.8260,-97.0510,0.0,20.8,2 
NDBC,ioos:station:NOAA.NDBC:PTAT2:1,2017-03-02T05:00:00Z,27.8260,-97.0510,0.0,20.6,2 
NDBC,ioos:station:NOAA.NDBC:PTAT2:1,2017-03-02T06:00:00Z,27.8260,-97.0510,0.0,20.3,2 
NDBC,ioos:station:NOAA.NDBC:PTAT2:1,2017-03-02T07:00:00Z,27.8260,-97.0510,0.0,20.2,2 
NDBC,ioos:station:NOAA.NDBC:PTAT2:1,2017-03-02T08:00:00Z,27.8260,-97.0510,0.0,20.2,2 
NDBC,ioos:station:NOAA.NDBC:PTAT2:1,2017-03-02T09:00:00Z,27.8260,-97.0510,0.0,20.1,2 
NDBC,ioos:station:NOAA.NDBC:PTAT2:1,2017-03-02T10:00:00Z,27.8260,-97.0510,0.0,19.9,2 
NDBC,ioos:station:NOAA.NDBC:PTAT2:1,2017-03-02T11:00:00Z,27.8260,-97.0510,0.0,19.8,2 
NDBC,ioos:station:NOAA.NDBC:PTAT2:1,2017-03-02T12:00:00Z,27.8260,-97.0510,0.0,20.0,2 
NDBC,ioos:station:NOAA.NDBC:PTAT2:1,2017-03-02T13:00:00Z,27.8260,-97.0510,0.0,20.3,2 
NDBC,ioos:station:NOAA.NDBC:PTAT2:1,2017-03-02T14:00:00Z,27.8260,-97.0510,0.0,20.0,2 
NDBC,ioos:station:NOAA.NDBC:PTAT2:1,2017-03-02T15:00:00Z,27.8260,-97.0510,0.0,19.6,2 
NDBC,ioos:station:NOAA.NDBC:PTAT2:1,2017-03-02T16:00:00Z,27.8260,-97.0510,0.0,19.7,2 
NDBC,ioos:station:NOAA.NDBC:PTAT2:1,2017-03-02T17:00:00Z,27.8260,-97.0510,0.0,19.8,2 
NDBC,ioos:station:NOAA.NDBC:PTAT2:1,2017-03-02T18:00:00Z,27.8260,-97.0510,0.0,20.0,2 
NDBC,ioos:station:NOAA.NDBC:PTAT2:1,2017-03-02T19:00:00Z,27.8260,-97.0510,0.0,20.1,2 
NDBC,ioos:station:NOAA.NDBC:PTAT2:1,2017-03-02T20:00:00Z,27.8260,-97.0510,0.0,20.1,2 
NDBC,ioos:station:NOAA.NDBC:PTAT2:1,2017-03-02T21:00:00Z,27.8260,-97.0510,0.0,20.1,2 
NDBC,ioos:station:NOAA.NDBC:PTAT2:1,2017-03-02T22:00:00Z,27.8260,-97.0510,0.0,20.0,2 
NDBC,ioos:station:NOAA.NDBC:PTAT2:1,2017-03-02T23:00:00Z,27.8260,-97.0510,0.0,19.9,2 
NDBC,ioos:station:NOAA.NDBC:PTAT2:1,2017-03-03T01:00:00Z,27.8260,-97.0510,0.0,19.7,2 
NDBC,ioos:station:NOAA.NDBC:PTAT2:1,2017-03-03T02:00:00Z,27.8260,-97.0510,0.0,19.6,2 
NDBC,ioos:station:NOAA.NDBC:PTAT2:1,2017-03-03T03:00:00Z,27.8260,-97.0510,0.0,19.5,2 
NDBC,ioos:station:NOAA.NDBC:PTAT2:1,2017-03-03T04:00:00Z,27.8260,-97.0510,0.0,19.4,2 
NDBC,ioos:station:NOAA.NDBC:PTAT2:1,2017-03-03T05:00:00Z,27.8260,-97.0510,0.0,19.3,2 
NDBC,ioos:station:NOAA.NDBC:PTAT2:1,2017-03-03T06:00:00Z,27.8260,-97.0510,0.0,19.2,2 
NDBC,ioos:station:NOAA.NDBC:PTAT2:1,2017-03-03T07:00:00Z,27.8260,-97.0510,0.0,19.0,2 
NDBC,ioos:station:NOAA.NDBC:PTAT2:1,2017-03-03T08:00:00Z,27.8260,-97.0510,0.0,18.9,2 
NDBC,ioos:station:NOAA.NDBC:PTAT2:1,2017-03-03T09:00:00Z,27.8260,-97.0510,0.0,18.8,2 
NDBC,ioos:station:NOAA.NDBC:PTAT2:1,2017-03-03T10:00:00Z,27.8260,-97.0510,0.0,18.6,2 
NDBC,ioos:station:NOAA.NDBC:PTAT2:1,2017-03-03T11:00:00Z,27.8260,-97.0510,0.0,18.4,2 
NDBC,ioos:station:NOAA.NDBC:PTAT2:1,2017-03-03T12:00:00Z,27.8260,-97.0510,0.0,18.4,2 
NDBC,ioos:station:NOAA.NDBC:PTAT2:1,2017-03-03T13:00:00Z,27.8260,-97.0510,0.0,18.3,2 
NDBC,ioos:station:NOAA.NDBC:PTAT2:1,2017-03-03T14:00:00Z,27.8260,-97.0510,0.0,18.4,2 
NDBC,ioos:station:NOAA.NDBC:PTAT2:1,2017-03-03T15:00:00Z,27.8260,-97.0510,0.0,18.4,2 
NDBC,ioos:station:NOAA.NDBC:PTAT2:1,2017-03-03T16:00:00Z,27.8260,-97.0510,0.0,18.4,2 
NDBC,ioos:station:NOAA.NDBC:PTAT2:1,2017-03-03T17:00:00Z,27.8260,-97.0510,0.0,18.4,2 
NDBC,ioos:station:NOAA.NDBC:PTAT2:1,2017-03-03T18:00:00Z,27.8260,-97.0510,0.0,18.4,2 
NDBC,ioos:station:NOAA.NDBC:PTAT2:1,2017-03-03T19:00:00Z,27.8260,-97.0510,0.0,18.5,2 
NDBC,ioos:station:NOAA.NDBC:PTAT2:1,2017-03-03T20:00:00Z,27.8260,-97.0510,0.0,18.5,2 
NDBC,ioos:station:NOAA.NDBC:PTAT2:1,2017-03-03T21:00:00Z,27.8260,-97.0510,0.0,18.5,2 
NDBC,ioos:station:NOAA.NDBC:PTAT2:1,2017-03-03T22:00:00Z,27.8260,-97.0510,0.0,18.4,2 
NDBC,ioos:station:NOAA.NDBC:PTAT2:1,2017-03-04T00:00:00Z,27.8260,-97.0510,0.0,18.4,2 
NDBC,ioos:station:NOAA.NDBC:PTAT2:1,2017-03-04T01:00:00Z,27.8260,-97.0510,0.0,18.4,2 
NDBC,ioos:station:NOAA.NDBC:PTAT2:1,2017-03-04T02:00:00Z,27.8260,-97.0510,0.0,18.4,2 
NDBC,ioos:station:NOAA.NDBC:PTAT2:1,2017-03-04T03:00:00Z,27.8260,-97.0510,0.0,18.5,2 
NDBC,ioos:station:NOAA.NDBC:PTAT2:1,2017-03-04T04:00:00Z,27.8260,-97.0510,0.0,18.5,2 
NDBC,ioos:station:NOAA.NDBC:PTAT2:1,2017-03-04T05:00:00Z,27.8260,-97.0510,0.0,18.5,2 
NDBC,ioos:station:NOAA.NDBC:PTAT2:1,2017-03-04T06:00:00Z,27.8260,-97.0510,0.0,18.4,2 
NDBC,ioos:station:NOAA.NDBC:PTAT2:1,2017-03-04T07:00:00Z,27.8260,-97.0510,0.0,18.4,2 
NDBC,ioos:station:NOAA.NDBC:PTAT2:1,2017-03-04T08:00:00Z,27.8260,-97.0510,0.0,18.5,2 
NDBC,ioos:station:NOAA.NDBC:PTAT2:1,2017-03-04T09:00:00Z,27.8260,-97.0510,0.0,18.4,2 
NDBC,ioos:station:NOAA.NDBC:PTAT2:1,2017-03-04T10:00:00Z,27.8260,-97.0510,0.0,18.3,2 
NDBC,ioos:station:NOAA.NDBC:PTAT2:1,2017-03-04T11:00:00Z,27.8260,-97.0510,0.0,18.3,2 
NDBC,ioos:station:NOAA.NDBC:PTAT2:1,2017-03-04T12:00:00Z,27.8260,-97.0510,0.0,18.2,2 
NDBC,ioos:station:NOAA.NDBC:PTAT2:1,2017-03-04T13:00:00Z,27.8260,-97.0510,0.0,18.2,2 
NDBC,ioos:station:NOAA.NDBC:PTAT2:1,2017-03-04T14:00:00Z,27.8260,-97.0510,0.0,18.2,2 
NDBC,ioos:station:NOAA.NDBC:PTAT2:1,2017-03-04T15:00:00Z,27.8260,-97.0510,0.0,18.2,2 
NDBC,ioos:station:NOAA.NDBC:PTAT2:1,2017-03-04T16:00:00Z,27.8260,-97.0510,0.0,18.3,2 
NDBC,ioos:station:NOAA.NDBC:PTAT2:1,2017-03-04T17:00:00Z,27.8260,-97.0510,0.0,18.3,2 
NDBC,ioos:station:NOAA.NDBC:PTAT2:1,2017-03-04T18:00:00Z,27.8260,-97.0510,0.0,18.4,2 
NDBC,ioos:station:NOAA.NDBC:PTAT2:1,2017-03-04T19:00:00Z,27.8260,-97.0510,0.0,18.4,2 
NDBC,ioos:station:NOAA.NDBC:PTAT2:1,2017-03-04T20:00:00Z,27.8260,-97.0510,0.0,18.5,2 
NDBC,ioos:station:NOAA.NDBC:PTAT2:1,2017-03-04T21:00:00Z,27.8260,-97.0510,0.0,18.5,2 
NDBC,ioos:station:NOAA.NDBC:PTAT2:1,2017-03-04T22:00:00Z,27.8260,-97.0510,0.0,18.5,2 
NDBC,ioos:station:NOAA.NDBC:PTAT2:1,2017-03-04T23:00:00Z,27.8260,-97.0510,0.0,18.5,2 
NDBC,ioos:station:NOAA.NDBC:PTAT2:1,2017-03-05T00:00:00Z,27.8260,-97.0510,0.0,18.5,2 
NDBC,ioos:station:NOAA.NDBC:PTAT2:1,2017-03-05T01:00:00Z,27.8260,-97.0510,0.0,18.5,2 
NDBC,ioos:station:NOAA.NDBC:PTAT2:1,2017-03-05T02:00:00Z,27.8260,-97.0510,0.0,18.4,2 
NDBC,ioos:station:NOAA.NDBC:PTAT2:1,2017-03-05T03:00:00Z,27.8260,-97.0510,0.0,18.4,2 
NDBC,ioos:station:NOAA.NDBC:PTAT2:1,2017-03-05T04:00:00Z,27.8260,-97.0510,0.0,18.4,2 
NDBC,ioos:station:NOAA.NDBC:PTAT2:1,2017-03-05T05:00:00Z,27.8260,-97.0510,0.0,18.4,2 
NDBC,ioos:station:NOAA.NDBC:PTAT2:1,2017-03-05T06:00:00Z,27.8260,-97.0510,0.0,18.4,2 
NDBC,ioos:station:NOAA.NDBC:PTAT2:1,2017-03-05T07:00:00Z,27.8260,-97.0510,0.0,18.4,2 
NDBC,ioos:station:NOAA.NDBC:PTAT2:1,2017-03-05T08:00:00Z,27.8260,-97.0510,0.0,18.4,2 
NDBC,ioos:station:NOAA.NDBC:PTAT2:1,2017-03-05T09:00:00Z,27.8260,-97.0510,0.0,18.4,2 
NDBC,ioos:station:NOAA.NDBC:PTAT2:1,2017-03-05T10:00:00Z,27.8260,-97.0510,0.0,18.4,2 
NDBC,ioos:station:NOAA.NDBC:PTAT2:1,2017-03-05T11:00:00Z,27.8260,-97.0510,0.0,18.3,2 
NDBC,ioos:station:NOAA.NDBC:PTAT2:1,2017-03-05T12:00:00Z,27.8260,-97.0510,0.0,18.3,2 
NDBC,ioos:station:NOAA.NDBC:PTAT2:1,2017-03-05T13:00:00Z,27.8260,-97.0510,0.0,18.3,2 
NDBC,ioos:station:NOAA.NDBC:PTAT2:1,2017-03-05T14:00:00Z,27.8260,-97.0510,0.0,18.3,2 
NDBC,ioos:station:NOAA.NDBC:PTAT2:1,2017-03-05T15:00:00Z,27.8260,-97.0510,0.0,18.3,2 
NDBC,ioos:station:NOAA.NDBC:PTAT2:1,2017-03-05T16:00:00Z,27.8260,-97.0510,0.0,18.4,2 
NDBC,ioos:station:NOAA.NDBC:PTAT2:1,2017-03-05T17:00:00Z,27.8260,-97.0510,0.0,18.5,2 
NDBC,ioos:station:NOAA.NDBC:PTAT2:1,2017-03-05T18:00:00Z,27.8260,-97.0510,0.0,18.6,2 
NDBC,ioos:station:NOAA.NDBC:PTAT2:1,2017-03-05T19:00:00Z,27.8260,-97.0510,0.0,18.7,2 
NDBC,ioos:station:NOAA.NDBC:PTAT2:1,2017-03-05T20:00:00Z,27.8260,-97.0510,0.0,18.8,2 
NDBC,ioos:station:NOAA.NDBC:PTAT2:1,2017-03-05T21:00:00Z,27.8260,-97.0510,0.0,19.1,2 
NDBC,ioos:station:NOAA.NDBC:PTAT2:1,2017-03-05T22:00:00Z,27.8260,-97.0510,0.0,19.1,2 
NDBC,ioos:station:NOAA.NDBC:PTAT2:1,2017-03-05T23:00:00Z,27.8260,-97.0510,0.0,19.2,2 
NDBC,ioos:station:NOAA.NDBC:PTAT2:1,2017-03-06T00:00:00Z,27.8260,-97.0510,0.0,19.2,2 
NDBC,ioos:station:NOAA.NDBC:PTAT2:1,2017-03-06T01:00:00Z,27.8260,-97.0510,0.0,19.1,2 
NDBC,ioos:station:NOAA.NDBC:PTAT2:1,2017-03-06T02:00:00Z,27.8260,-97.0510,0.0,19.0,2 
NDBC,ioos:station:NOAA.NDBC:PTAT2:1,2017-03-06T03:00:00Z,27.8260,-97.0510,0.0,18.9,2 
NDBC,ioos:station:NOAA.NDBC:PTAT2:1,2017-03-06T04:00:00Z,27.8260,-97.0510,0.0,18.9,2 
NDBC,ioos:station:NOAA.NDBC:PTAT2:1,2017-03-06T05:00:00Z,27.8260,-97.0510,0.0,18.9,2 
NDBC,ioos:station:NOAA.NDBC:PTAT2:1,2017-03-06T06:00:00Z,27.8260,-97.0510,0.0,19.0,2 
NDBC,ioos:station:NOAA.NDBC:PTAT2:1,2017-03-06T07:00:00Z,27.8260,-97.0510,0.0,19.0,2 
NDBC,ioos:station:NOAA.NDBC:PTAT2:1,2017-03-06T08:00:00Z,27.8260,-97.0510,0.0,19.0,2 
NDBC,ioos:station:NOAA.NDBC:PTAT2:1,2017-03-06T09:00:00Z,27.8260,-97.0510,0.0,19.0,2 
NDBC,ioos:station:NOAA.NDBC:PTAT2:1,2017-03-06T10:00:00Z,27.8260,-97.0510,0.0,18.9,2 
NDBC,ioos:station:NOAA.NDBC:PTAT2:1,2017-03-06T11:00:00Z,27.8260,-97.0510,0.0,18.9,2 
NDBC,ioos:station:NOAA.NDBC:PTAT2:1,2017-03-06T12:00:00Z,27.8260,-97.0510,0.0,18.9,2 
NDBC,ioos:station:NOAA.NDBC:PTAT2:1,2017-03-06T13:00:00Z,27.8260,-97.0510,0.0,19.0,2 
NDBC,ioos:station:NOAA.NDBC:PTAT2:1,2017-03-06T14:00:00Z,27.8260,-97.0510,0.0,19.0,2 
NDBC,ioos:station:NOAA.NDBC:PTAT2:1,2017-03-06T15:00:00Z,27.8260,-97.0510,0.0,19.0,2 
NDBC,ioos:station:NOAA.NDBC:PTAT2:1,2017-03-06T16:00:00Z,27.8260,-97.0510,0.0,19.1,2 
NDBC,ioos:station:NOAA.NDBC:PTAT2:1,2017-03-06T17:00:00Z,27.8260,-97.0510,0.0,19.3,2 
NDBC,ioos:station:NOAA.NDBC:PTAT2:1,2017-03-06T18:00:00Z,27.8260,-97.0510,0.0,19.2,2 
NDBC,ioos:station:NOAA.NDBC:PTAT2:1,2017-03-06T19:00:00Z,27.8260,-97.0510,0.0,19.2,2 
NDBC,ioos:station:NOAA.NDBC:PTAT2:1,2017-03-06T20:00:00Z,27.8260,-97.0510,0.0,19.2,2 
NDBC,ioos:station:NOAA.NDBC:PTAT2:1,2017-03-06T21:00:00Z,27.8260,-97.0510,0.0,19.3,2 
NDBC,ioos:station:NOAA.NDBC:PTAT2:1,2017-03-06T22:00:00Z,27.8260,-97.0510,0.0,19.4,2 
NDBC,ioos:station:NOAA.NDBC:PTAT2:1,2017-03-06T23:00:00Z,27.8260,-97.0510,0.0,19.4,2 
NDBC,ioos:station:NOAA.NDBC:PTAT2:1,2017-03-07T00:00:00Z,27.8260,-97.0510,0.0,19.2,2 
NDBC,ioos:station:NOAA.NDBC:PTAT2:1,2017-03-07T01:00:00Z,27.8260,-97.0510,0.0,19.2,2 
NDBC,ioos:station:NOAA.NDBC:PTAT2:1,2017-03-07T02:00:00Z,27.8260,-97.0510,0.0,19.2,2 
NDBC,ioos:station:NOAA.NDBC:PTAT2:1,2017-03-07T03:00:00Z,27.8260,-97.0510,0.0,19.2,2 
NDBC,ioos:station:NOAA.NDBC:PTAT2:1,2017-03-07T04:00:00Z,27.8260,-97.0510,0.0,19.2,2 
NDBC,ioos:station:NOAA.NDBC:PTAT2:1,2017-03-07T05:00:00Z,27.8260,-97.0510,0.0,19.2,2 
NDBC,ioos:station:NOAA.NDBC:PTAT2:1,2017-03-07T06:00:00Z,27.8260,-97.0510,0.0,19.2,2 
NDBC,ioos:station:NOAA.NDBC:PTAT2:1,2017-03-07T07:00:00Z,27.8260,-97.0510,0.0,19.2,2 
NDBC,ioos:station:NOAA.NDBC:PTAT2:1,2017-03-07T08:00:00Z,27.8260,-97.0510,0.0,19.2,2 
NDBC,ioos:station:NOAA.NDBC:PTAT2:1,2017-03-07T09:00:00Z,27.8260,-97.0510,0.0,19.2,2 
NDBC,ioos:station:NOAA.NDBC:PTAT2:1,2017-03-07T10:00:00Z,27.8260,-97.0510,0.0,19.2,2 
NDBC,ioos:station:NOAA.NDBC:PTAT2:1,2017-03-07T11:00:00Z,27.8260,-97.0510,0.0,19.2,2 
NDBC,ioos:station:NOAA.NDBC:PTAT2:1,2017-03-07T12:00:00Z,27.8260,-97.0510,0.0,19.2,2 
NDBC,ioos:station:NOAA.NDBC:PTAT2:1,2017-03-07T13:00:00Z,27.8260,-97.0510,0.0,19.2,2 
NDBC,ioos:station:NOAA.NDBC:PTAT2:1,2017-03-07T14:00:00Z,27.8260,-97.0510,0.0,19.2,2 
NDBC,ioos:station:NOAA.NDBC:PTAT2:1,2017-03-07T15:00:00Z,27.8260,-97.0510,0.0,19.2,2 
NDBC,ioos:station:NOAA.NDBC:PTAT2:1,2017-03-07T16:00:00Z,27.8260,-97.0510,0.0,19.3,2 
NDBC,ioos:station:NOAA.NDBC:PTAT2:1,2017-03-07T17:00:00Z,27.8260,-97.0510,0.0,19.4,2 
NDBC,ioos:station:NOAA.NDBC:PTAT2:1,2017-03-07T18:00:00Z,27.8260,-97.0510,0.0,19.4,2 
NDBC,ioos:station:NOAA.NDBC:PTAT2:1,2017-03-07T19:00:00Z,27.8260,-97.0510,0.0,19.5,2 
NDBC,ioos:station:NOAA.NDBC:PTAT2:1,2017-03-07T20:00:00Z,27.8260,-97.0510,0.0,19.7,2 
NDBC,ioos:station:NOAA.NDBC:PTAT2:1,2017-03-07T21:00:00Z,27.8260,-97.0510,0.0,20.3,2 
NDBC,ioos:station:NOAA.NDBC:PTAT2:1,2017-03-07T23:00:00Z,27.8260,-97.0510,0.0,20.1,2 
NDBC,ioos:station:NOAA.NDBC:PTAT2:1,2017-03-08T02:00:00Z,27.8260,-97.0510,0.0,20.4,2 
NDBC,ioos:station:NOAA.NDBC:PTAT2:1,2017-03-08T13:00:00Z,27.8260,-97.0510,0.0,19.9,2 
NDBC,ioos:station:NOAA.NDBC:PTAT2:1,2017-03-08T14:00:00Z,27.8260,-97.0510,0.0,20.0,2 
NDBC,ioos:station:NOAA.NDBC:PTAT2:1,2017-03-08T15:00:00Z,27.8260,-97.0510,0.0,20.0,2 
NDBC,ioos:station:NOAA.NDBC:PTAT2:1,2017-03-08T16:00:00Z,27.8260,-97.0510,0.0,20.1,2 
NDBC,ioos:station:NOAA.NDBC:PTAT2:1,2017-03-08T17:00:00Z,27.8260,-97.0510,0.0,20.2,2 
NDBC,ioos:station:NOAA.NDBC:PTAT2:1,2017-03-08T18:00:00Z,27.8260,-97.0510,0.0,20.4,2 
NDBC,ioos:station:NOAA.NDBC:PTAT2:1,2017-03-08T19:00:00Z,27.8260,-97.0510,0.0,20.7,2 
NDBC,ioos:station:NOAA.NDBC:PTAT2:1,2017-03-08T20:00:00Z,27.8260,-97.0510,0.0,20.9,2 
NDBC,ioos:station:NOAA.NDBC:PTAT2:1,2017-03-08T21:00:00Z,27.8260,-97.0510,0.0,20.7,2 
NDBC,ioos:station:NOAA.NDBC:PTAT2:1,2017-03-08T23:00:00Z,27.8260,-97.0510,0.0,20.6,2 
NDBC,ioos:station:NOAA.NDBC:PTAT2:1,2017-03-09T13:00:00Z,27.8260,-97.0510,0.0,19.7,2 
NDBC,ioos:station:NOAA.NDBC:PTAT2:1,2017-03-09T20:00:00Z,27.8260,-97.0510,0.0,20.3,2 
NDBC,ioos:station:NOAA.NDBC:PTAT2:1,2017-03-09T21:00:00Z,27.8260,-97.0510,0.0,20.4,2 
NDBC,ioos:station:NOAA.NDBC:PTAT2:1,2017-03-09T22:00:00Z,27.8260,-97.0510,0.0,20.5,2 
NDBC,ioos:station:NOAA.NDBC:PTAT2:1,2017-03-09T23:00:00Z,27.8260,-97.0510,0.0,20.5,2 
NDBC,ioos:station:NOAA.NDBC:PTAT2:1,2017-03-10T03:00:00Z,27.8260,-97.0510,0.0,20.1,2 
NDBC,ioos:station:NOAA.NDBC:PTAT2:1,2017-03-10T04:00:00Z,27.8260,-97.0510,0.0,20.2,2 
NDBC,ioos:station:NOAA.NDBC:PTAT2:1,2017-03-10T06:00:00Z,27.8260,-97.0510,0.0,20.0,2 
NDBC,ioos:station:NOAA.NDBC:PTAT2:1,2017-03-10T13:00:00Z,27.8260,-97.0510,0.0,19.9,2 
NDBC,ioos:station:NOAA.NDBC:PTAT2:1,2017-03-10T23:00:00Z,27.8260,-97.0510,0.0,20.2,2 
NDBC,ioos:station:NOAA.NDBC:PTAT2:1,2017-03-11T01:00:00Z,27.8260,-97.0510,0.0,20.1,2 
NDBC,ioos:station:NOAA.NDBC:PTAT2:1,2017-03-11T03:00:00Z,27.8260,-97.0510,0.0,20.0,2 
NDBC,ioos:station:NOAA.NDBC:PTAT2:1,2017-03-11T10:00:00Z,27.8260,-97.0510,0.0,19.9,2 
NDBC,ioos:station:NOAA.NDBC:PTAT2:1,2017-03-11T13:00:00Z,27.8260,-97.0510,0.0,19.9,2 
NDBC,ioos:station:NOAA.NDBC:PTAT2:1,2017-03-11T22:00:00Z,27.8260,-97.0510,0.0,20.8,2 
NDBC,ioos:station:NOAA.NDBC:PTAT2:1,2017-03-11T23:00:00Z,27.8260,-97.0510,0.0,21.0,2 
NDBC,ioos:station:NOAA.NDBC:PTAT2:1,2017-03-12T02:00:00Z,27.8260,-97.0510,0.0,20.5,2 
NDBC,ioos:station:NOAA.NDBC:PTAT2:1,2017-03-12T07:00:00Z,27.8260,-97.0510,0.0,20.2,2 
NDBC,ioos:station:NOAA.NDBC:PTAT2:1,2017-03-12T09:00:00Z,27.8260,-97.0510,0.0,19.7,2 
NDBC,ioos:station:NOAA.NDBC:PTAT2:1,2017-03-12T14:00:00Z,27.8260,-97.0510,0.0,19.8,2 
NDBC,ioos:station:NOAA.NDBC:PTAT2:1,2017-03-12T15:00:00Z,27.8260,-97.0510,0.0,19.8,2 
NDBC,ioos:station:NOAA.NDBC:PTAT2:1,2017-03-12T16:00:00Z,27.8260,-97.0510,0.0,19.7,2 
NDBC,ioos:station:NOAA.NDBC:PTAT2:1,2017-03-12T17:00:00Z,27.8260,-97.0510,0.0,19.8,2 
NDBC,ioos:station:NOAA.NDBC:PTAT2:1,2017-03-12T18:00:00Z,27.8260,-97.0510,0.0,19.8,2 
NDBC,ioos:station:NOAA.NDBC:PTAT2:1,2017-03-12T19:00:00Z,27.8260,-97.0510,0.0,19.8,2 
NDBC,ioos:station:NOAA.NDBC:PTAT2:1,2017-03-12T20:00:00Z,27.8260,-97.0510,0.0,19.8,2 
NDBC,ioos:station:NOAA.NDBC:PTAT2:1,2017-03-12T21:00:00Z,27.8260,-97.0510,0.0,19.8,2 
NDBC,ioos:station:NOAA.NDBC:PTAT2:1,2017-03-12T23:00:00Z,27.8260,-97.0510,0.0,19.8,2 
NDBC,ioos:station:NOAA.NDBC:PTAT2:1,2017-03-13T03:00:00Z,27.8260,-97.0510,0.0,19.3,2 
NDBC,ioos:station:NOAA.NDBC:PTAT2:1,2017-03-13T04:00:00Z,27.8260,-97.0510,0.0,19.3,2 
NDBC,ioos:station:NOAA.NDBC:PTAT2:1,2017-03-13T05:00:00Z,27.8260,-97.0510,0.0,19.3,2 
NDBC,ioos:station:NOAA.NDBC:PTAT2:1,2017-03-13T06:00:00Z,27.8260,-97.0510,0.0,19.2,2 
NDBC,ioos:station:NOAA.NDBC:PTAT2:1,2017-03-13T07:00:00Z,27.8260,-97.0510,0.0,19.2,2 
NDBC,ioos:station:NOAA.NDBC:PTAT2:1,2017-03-13T14:00:00Z,27.8260,-97.0510,0.0,18.9,2 
NDBC,ioos:station:NOAA.NDBC:PTAT2:1,2017-03-13T15:00:00Z,27.8260,-97.0510,0.0,18.9,2 
NDBC,ioos:station:NOAA.NDBC:PTAT2:1,2017-03-13T16:00:00Z,27.8260,-97.0510,0.0,19.0,2 
NDBC,ioos:station:NOAA.NDBC:PTAT2:1,2017-03-13T17:00:00Z,27.8260,-97.0510,0.0,19.1,2 
NDBC,ioos:station:NOAA.NDBC:PTAT2:1,2017-03-13T18:00:00Z,27.8260,-97.0510,0.0,19.0,2 
NDBC,ioos:station:NOAA.NDBC:PTAT2:1,2017-03-13T19:00:00Z,27.8260,-97.0510,0.0,19.0,2 
NDBC,ioos:station:NOAA.NDBC:PTAT2:1,2017-03-13T20:00:00Z,27.8260,-97.0510,0.0,19.1,2 
NDBC,ioos:station:NOAA.NDBC:PTAT2:1,2017-03-13T21:00:00Z,27.8260,-97.0510,0.0,19.2,2 
NDBC,ioos:station:NOAA.NDBC:PTAT2:1,2017-03-13T23:00:00Z,27.8260,-97.0510,0.0,19.2,2 
NDBC,ioos:station:NOAA.NDBC:PTAT2:1,2017-03-14T03:00:00Z,27.8260,-97.0510,0.0,19.0,2 
NDBC,ioos:station:NOAA.NDBC:PTAT2:1,2017-03-14T04:00:00Z,27.8260,-97.0510,0.0,19.0,2 
NDBC,ioos:station:NOAA.NDBC:PTAT2:1,2017-03-14T05:00:00Z,27.8260,-97.0510,0.0,18.9,2 
NDBC,ioos:station:NOAA.NDBC:PTAT2:1,2017-03-14T06:00:00Z,27.8260,-97.0510,0.0,18.9,2 
NDBC,ioos:station:NOAA.NDBC:PTAT2:1,2017-03-14T07:00:00Z,27.8260,-97.0510,0.0,18.9,2 
NDBC,ioos:station:NOAA.NDBC:PTAT2:1,2017-03-14T08:00:00Z,27.8260,-97.0510,0.0,19.0,2 
NDBC,ioos:station:NOAA.NDBC:PTAT2:1,2017-03-14T09:00:00Z,27.8260,-97.0510,0.0,18.9,2 
NDBC,ioos:station:NOAA.NDBC:PTAT2:1,2017-03-14T10:00:00Z,27.8260,-97.0510,0.0,18.8,2 
NDBC,ioos:station:NOAA.NDBC:PTAT2:1,2017-03-14T11:00:00Z,27.8260,-97.0510,0.0,18.8,2 
NDBC,ioos:station:NOAA.NDBC:PTAT2:1,2017-03-14T12:00:00Z,27.8260,-97.0510,0.0,18.6,2 
NDBC,ioos:station:NOAA.NDBC:PTAT2:1,2017-03-14T13:00:00Z,27.8260,-97.0510,0.0,18.5,2 
NDBC,ioos:station:NOAA.NDBC:PTAT2:1,2017-03-14T14:00:00Z,27.8260,-97.0510,0.0,18.5,2 
NDBC,ioos:station:NOAA.NDBC:PTAT2:1,2017-03-14T15:00:00Z,27.8260,-97.0510,0.0,18.6,2 
NDBC,ioos:station:NOAA.NDBC:PTAT2:1,2017-03-14T16:00:00Z,27.8260,-97.0510,0.0,18.8,2 
NDBC,ioos:station:NOAA.NDBC:PTAT2:1,2017-03-14T17:00:00Z,27.8260,-97.0510,0.0,18.9,2 
NDBC,ioos:station:NOAA.NDBC:PTAT2:1,2017-03-14T18:00:00Z,27.8260,-97.0510,0.0,19.0,2 
NDBC,ioos:station:NOAA.NDBC:PTAT2:1,2017-03-14T19:00:00Z,27.8260,-97.0510,0.0,19.1,2 
NDBC,ioos:station:NOAA.NDBC:PTAT2:1,2017-03-14T20:00:00Z,27.8260,-97.0510,0.0,19.2,2 
NDBC,ioos:station:NOAA.NDBC:PTAT2:1,2017-03-14T21:00:00Z,27.8260,-97.0510,0.0,19.4,2 
NDBC,ioos:station:NOAA.NDBC:PTAT2:1,2017-03-15T01:00:00Z,27.8260,-97.0510,0.0,19.6,2 
NDBC,ioos:station:NOAA.NDBC:PTAT2:1,2017-03-15T05:00:00Z,27.8260,-97.0510,0.0,19.4,2 
NDBC,ioos:station:NOAA.NDBC:PTAT2:1,2017-03-15T06:00:00Z,27.8260,-97.0510,0.0,19.4,2 
NDBC,ioos:station:NOAA.NDBC:PTAT2:1,2017-03-15T07:00:00Z,27.8260,-97.0510,0.0,19.3,2 
NDBC,ioos:station:NOAA.NDBC:PTAT2:1,2017-03-15T11:00:00Z,27.8260,-97.0510,0.0,19.0,2 
NDBC,ioos:station:NOAA.NDBC:PTAT2:1,2017-03-15T13:00:00Z,27.8260,-97.0510,0.0,18.8,2 
NDBC,ioos:station:NOAA.NDBC:PTAT2:1,2017-03-15T14:00:00Z,27.8260,-97.0510,0.0,18.7,2 
NDBC,ioos:station:NOAA.NDBC:PTAT2:1,2017-03-15T15:00:00Z,27.8260,-97.0510,0.0,18.8,2 
NDBC,ioos:station:NOAA.NDBC:PTAT2:1,2017-03-15T16:00:00Z,27.8260,-97.0510,0.0,19.0,2 
NDBC,ioos:station:NOAA.NDBC:PTAT2:1,2017-03-15T17:00:00Z,27.8260,-97.0510,0.0,19.2,2 
NDBC,ioos:station:NOAA.NDBC:PTAT2:1,2017-03-15T18:00:00Z,27.8260,-97.0510,0.0,19.5,2 
NDBC,ioos:station:NOAA.NDBC:PTAT2:1,2017-03-15T19:00:00Z,27.8260,-97.0510,0.0,19.8,2 
NDBC,ioos:station:NOAA.NDBC:PTAT2:1,2017-03-15T23:00:00Z,27.8260,-97.0510,0.0,20.2,2 
NDBC,ioos:station:NOAA.NDBC:PTAT2:1,2017-03-16T02:00:00Z,27.8260,-97.0510,0.0,19.7,2 
NDBC,ioos:station:NOAA.NDBC:PTAT2:1,2017-03-16T03:00:00Z,27.8260,-97.0510,0.0,19.8,2 
NDBC,ioos:station:NOAA.NDBC:PTAT2:1,2017-03-16T04:00:00Z,27.8260,-97.0510,0.0,19.8,2 
NDBC,ioos:station:NOAA.NDBC:PTAT2:1,2017-03-16T05:00:00Z,27.8260,-97.0510,0.0,19.7,2 
NDBC,ioos:station:NOAA.NDBC:PTAT2:1,2017-03-16T06:00:00Z,27.8260,-97.0510,0.0,19.7,2 
NDBC,ioos:station:NOAA.NDBC:PTAT2:1,2017-03-16T07:00:00Z,27.8260,-97.0510,0.0,19.7,2 
NDBC,ioos:station:NOAA.NDBC:PTAT2:1,2017-03-16T08:00:00Z,27.8260,-97.0510,0.0,19.7,2 
NDBC,ioos:station:NOAA.NDBC:PTAT2:1,2017-03-16T09:00:00Z,27.8260,-97.0510,0.0,19.7,2 
NDBC,ioos:station:NOAA.NDBC:PTAT2:1,2017-03-16T10:00:00Z,27.8260,-97.0510,0.0,19.7,2 
NDBC,ioos:station:NOAA.NDBC:PTAT2:1,2017-03-16T11:00:00Z,27.8260,-97.0510,0.0,19.7,2 
NDBC,ioos:station:NOAA.NDBC:PTAT2:1,2017-03-16T13:00:00Z,27.8260,-97.0510,0.0,19.6,2 
NDBC,ioos:station:NOAA.NDBC:PTAT2:1,2017-03-16T18:00:00Z,27.8260,-97.0510,0.0,20.2,2 
NDBC,ioos:station:NOAA.NDBC:PTAT2:1,2017-03-17T01:00:00Z,27.8260,-97.0510,0.0,21.5,2 
NDBC,ioos:station:NOAA.NDBC:PTAT2:1,2017-03-17T15:00:00Z,27.8260,-97.0510,0.0,20.7,2 
NDBC,ioos:station:NOAA.NDBC:PTAT2:1,2017-03-17T23:00:00Z,27.8260,-97.0510,0.0,21.6,2 
NDBC,ioos:station:NOAA.NDBC:PTAT2:1,2017-03-18T02:00:00Z,27.8260,-97.0510,0.0,21.5,2 
NDBC,ioos:station:NOAA.NDBC:PTAT2:1,2017-03-18T11:00:00Z,27.8260,-97.0510,0.0,21.3,2 
NDBC,ioos:station:NOAA.NDBC:PTAT2:1,2017-03-18T12:00:00Z,27.8260,-97.0510,0.0,21.3,2 
NDBC,ioos:station:NOAA.NDBC:PTAT2:1,2017-03-18T13:00:00Z,27.8260,-97.0510,0.0,21.2,2 
NDBC,ioos:station:NOAA.NDBC:PTAT2:1,2017-03-18T14:00:00Z,27.8260,-97.0510,0.0,21.2,2 
NDBC,ioos:station:NOAA.NDBC:PTAT2:1,2017-03-18T17:00:00Z,27.8260,-97.0510,0.0,21.7,2 
NDBC,ioos:station:NOAA.NDBC:PTAT2:1,2017-03-18T22:00:00Z,27.8260,-97.0510,0.0,23.0,2 
NDBC,ioos:station:NOAA.NDBC:PTAT2:1,2017-03-19T01:00:00Z,27.8260,-97.0510,0.0,23.0,2 
NDBC,ioos:station:NOAA.NDBC:PTAT2:1,2017-03-19T03:00:00Z,27.8260,-97.0510,0.0,22.8,2 
NDBC,ioos:station:NOAA.NDBC:PTAT2:1,2017-03-19T05:00:00Z,27.8260,-97.0510,0.0,22.6,2 
NDBC,ioos:station:NOAA.NDBC:PTAT2:1,2017-03-19T06:00:00Z,27.8260,-97.0510,0.0,22.6,2 
NDBC,ioos:station:NOAA.NDBC:PTAT2:1,2017-03-19T07:00:00Z,27.8260,-97.0510,0.0,22.5,2 
NDBC,ioos:station:NOAA.NDBC:PTAT2:1,2017-03-19T08:00:00Z,27.8260,-97.0510,0.0,22.4,2 
NDBC,ioos:station:NOAA.NDBC:PTAT2:1,2017-03-19T09:00:00Z,27.8260,-97.0510,0.0,22.4,2 